Regional Weather Roundup
Issued by NWS

Home | Current Version | Previous Version | Graphics & Text | Print | Product List | Glossary On
Versions: 1 2 3 4 5 6 7 8 9 10 11 12 13 14 15 16 17 18 19 20 21 22 23 24 25 26 27 28 29 30 31 32 33 34 35 36 37 38 39 40 41 42 43 44 45 46 47 48 49 50
799
ASUS43 KOAX 101710
RWRNE

WEATHER ROUNDUP FOR NEBRASKA
NATIONAL WEATHER SERVICE OMAHA NE
1100 AM CST WED FEB 10 2016

NOTES: SATELLITE DATA IS BEING USED TO AUGMENT CLOUD COVER ABOVE
       12000 FEET.
       "FAIR" INDICATES FEW OR NO CLOUDS BELOW 12,000 FEET WITH NO
       SIGNIFICANT WEATHER AND/OR OBSTRUCTIONS TO VISIBILITY.

  * THESE STATIONS DO NOT REPORT WEATHER SUCH AS RAIN...SNOW OR FOG.

NEZ001>004-019>022-054>056-101800-
NEBRASKA PANHANDLE

CITY           SKY/WX    TMP DP  RH WIND       PRES   REMARKS
SCOTTSBLUFF    SUNNY     50  27  40 NW13      30.04S
ALLIANCE       SUNNY     41  29  62 NW10      30.00S
CHADRON        SUNNY     52  26  36 W14       30.01R
KIMBALL        SUNNY     48  24  38 W22       30.09R
SIDNEY         SUNNY     47  28  47 W16       30.06R
$$

NEZ057>060-069>072-079>082-101800-
SOUTHWEST NEBRASKA

CITY           SKY/WX    TMP DP  RH WIND       PRES   REMARKS
NORTH PLATTE   SUNNY     44  29  55 NW10      29.96S
IMPERIAL       SUNNY     43  27  53 W17       30.02R
LEXINGTON      SUNNY     41  29  63 NW13      29.94F
MCCOOK         SUNNY     43  27  53 W14       29.99S
OGALLALA       SUNNY     41  28  58 W7        30.01F
$$

NEZ005>010-023>029-035>040-094-101800-
NORTH CENTRAL NEBRASKA

CITY           SKY/WX    TMP DP  RH WIND       PRES   REMARKS
VALENTINE      SUNNY     48  29  47 W14       29.88R
AINSWORTH      SUNNY     52  27  37 NW15G21   29.88R
BROKEN BOW     SUNNY     48  28  46 NW10      29.90S
O`NEILL        SUNNY     42  31  64 W8        29.85F
ORD            SUNNY     42  29  59 CALM      29.88F
THEDFORD       SUNNY     55  29  37 NW10      29.91F
$$

NEZ041-046>049-061>064-073>077-083>087-101800-
SOUTH CENTRAL NEBRASKA

CITY           SKY/WX    TMP DP  RH WIND       PRES   REMARKS
GRAND ISLAND   SUNNY     39  29  67 W13       29.91S WCI  31
AURORA         SUNNY     40  30  68 W10       29.90S WCI  33
HASTINGS       SUNNY     39  28  64 W9        29.91F WCI  33
HEBRON         SUNNY     38  28  67 W7        29.94S WCI  33
HOLDREGE       SUNNY     41  28  58 W13       29.93F
YORK           SUNNY     37  30  75 W8        29.91S WCI  31
$$

NEZ011>018-030>034-042>045-101800-
NORTHEAST NEBRASKA

CITY           SKY/WX    TMP DP  RH WIND       PRES   REMARKS
NORFOLK        SUNNY     30  24  78 S7        29.87F WCI  23
ALBION         SUNNY     32  25  74 CALM      29.88F
BLAIR          CLOUDY    31  20  63 SE9       29.94F WCI  22
COLUMBUS *     SUNNY     34  19  55 SW3       29.91F
FREMONT        SUNNY     31  19  63 S8        29.93F WCI  23
WAYNE          SUNNY     28  21  75 SE10      29.92R WCI  19
$$

NEZ050>053-065>068-078-088>093-101800-
SOUTHEAST NEBRASKA

CITY           SKY/WX    TMP DP  RH WIND       PRES   REMARKS
LINCOLN        CLOUDY    31  23  72 SW6       29.95S WCI  25
OMAHA EPPLEY   CLOUDY    31  19  61 SE9       29.97F WCI  23
BEATRICE       SUNNY     39  26  59 SW10      29.94S WCI  32
FALLS CITY     CLOUDY    34  16  47 S15       29.99F WCI  24
NEBRASKA CITY  CLOUDY    32  18  54 S14       29.96F WCI  22
PLATTSMOUTH    CLOUDY    32  19  60 S14       29.94F WCI  22
$$

NEZ044-045-051>053-067-101800-
OMAHA AREA

CITY           SKY/WX    TMP DP  RH WIND       PRES   REMARKS
OMAHA EPPLEY   CLOUDY    31  19  61 SE9       29.97F WCI  23
BLAIR          CLOUDY    31  20  63 SE9       29.94F WCI  22
FREMONT        SUNNY     31  19  63 S8        29.93F WCI  23
MILLARD        SUNNY     32  20  60 SE7       29.95F WCI  26
OFFUTT AFB     MOSUNNY   33  18  54 S10       29.95F WCI  25
PLATTSMOUTH    CLOUDY    32  19  60 S14       29.94F WCI  22
WAHOO          FAIR      31  22  68 S9        29.93F WCI  23
$$




USA.gov is the U.S. government's official web portal to all federal, state and local government web resources and services.